Location: Blackfoot
(53.5367°N, 112.7800°W)
Time: 10:56:12
(UTC-06:00)

Amateur Radio Satellites - All Passes

Search period start: 29 August 2015 10:26
Search period end: 30 August 2015 10:26
Location: Blackfoot, 53.5367°N, 112.7800°W

Satellite Date Start Highest point End Downlink Frequencies (MHz)
Time Altitude Azimuth
NANOSAT C BR1 29 Aug 10:26:53 10:30:04 21° 59° (ENE) 10:33:20 145.865
HO-68 29 Aug 10:28:31 10:35:46 75° 106° (ESE) 10:42:59 435.675
AUBIESAT-1 29 Aug 10:31:41 10:36:26 75° 65° (ENE) 10:41:05 437.475
BUGSAT 1 29 Aug 10:31:41 10:34:07 16° 56° (NE) 10:36:41 437.445
M-CUBED/EXP-1 PRIME 29 Aug 10:34:04 10:38:54 87° 68° (ENE) 10:43:39 437.505
DELFI C3 29 Aug 10:38:39 10:41:49 22° 91° (E) 10:45:02 145.870
QB50P1 29 Aug 10:38:51 10:42:24 26° 62° (ENE) 10:46:02 145.935-145.965
Oscar 11 29 Aug 10:39:22 10:43:20 34° 95° (E) 10:47:17 145.826/435.025
ANTELSAT 29 Aug 10:40:47 10:45:26 62° 70° (ENE) 10:50:07 437.575/2403.000
SO-50 29 Aug 10:44:06 10:49:07 79° 228° (SW) 10:54:00 436.795
Cosmos 2491 29 Aug 10:45:15 10:54:00 87° 282° (WNW) 11:02:47 435.465 / 435.565
SEEDS 29 Aug 10:49:25 10:53:38 70° 288° (WNW) 10:57:48 437.485
HUMSAT D 29 Aug 10:50:04 10:52:17 14° 85° (E) 10:54:38 437.325/437.525
CINEMA 3 29 Aug 10:53:28 10:58:34 85° 282° (WNW) 11:03:34 145.822/145.860
GOMX 1 29 Aug 10:57:00 11:01:47 34° 297° (WNW) 11:06:39 467.674
CUBEBUG 2 29 Aug 11:03:11 11:07:57 63° 101° (E) 11:12:35 437.445
Cosmos 2504 29 Aug 11:05:25 11:14:02 64° 72° (ENE) 11:22:16 435.465 / 435.565
ZACube-1 29 Aug 11:15:53 11:20:23 52° 99° (E) 11:24:46 437.345
UWE-3 29 Aug 11:16:14 11:20:55 66° 102° (ESE) 11:25:28 435.000/436.395/437.385
COMPASS 1 29 Aug 11:16:18 11:20:20 48° 291° (WNW) 11:24:20 437.405
ISS 29 Aug 11:19:01 11:21:19 18° 147° (SSE) 11:23:38 145.825
FUNcube-1 29 Aug 11:22:37 11:27:08 58° 100° (E) 11:31:33 145.935
DOVE 4 29 Aug 11:24:41 11:29:17 31° 298° (WNW) 11:33:52 437.250
AAUSAT CUBESAT 2 29 Aug 11:29:07 11:33:05 42° 292° (WNW) 11:36:59 437.432
UNISAT 6 29 Aug 11:31:56 11:36:32 51° 261° (W) 11:41:09 437.425
PCSat 29 Aug 11:33:16 11:38:44 78° 47° (NE) 11:44:11 145.827
50 SAT 29 Aug 11:37:56 11:40:30 17° 89° (E) 11:43:08 437.505
POLYITAN 1 29 Aug 11:37:56 11:42:13 85° 74° (ENE) 11:46:34 437.675
AIST 1 29 Aug 11:39:40 11:40:30 10° 307° (NW) 11:41:08
POPSAT HIP 1 29 Aug 11:41:42 11:45:59 90° 93° (E) 11:50:19 437.405
DUCHIFAT 1 29 Aug 11:44:46 11:49:01 88° 249° (WSW) 11:53:20 145.980
CUTE 1.7 + AOD 2 29 Aug 11:45:41 11:48:55 21° 300° (WNW) 11:52:04 437.475
AO-7 29 Aug 11:47:49 11:50:58 13° 8° (N) 11:54:13 29.400- 29.500
YUBILEINY 29 Aug 11:49:57 11:55:51 19° 288° (WNW) 12:01:21 435.215
ESTCUBE 1 29 Aug 11:50:20 11:53:13 17° 87° (E) 11:56:14 437.505/2401.250
BRITE-PL 29 Aug 11:53:41 11:55:37 12° 312° (NW) 11:57:24 437.365/2234.400
QB50P2 29 Aug 11:58:01 12:02:16 63° 258° (WSW) 12:06:32 145.880/145.840
CUSAT 1 29 Aug 11:58:46 12:05:55 87° 76° (ENE) 12:14:10 437.405
CANX-2 29 Aug 11:59:44 12:02:20 16° 304° (NW) 12:04:49 2200.000
Oscar 19 29 Aug 12:01:04 12:04:06 16° 50° (NE) 12:07:16 437.125/150
NANOSAT C BR1 29 Aug 12:01:20 12:05:32 61° 258° (WSW) 12:09:48 145.865
TIGRISAT 29 Aug 12:02:21 12:06:31 30° 267° (W) 12:10:40 435.000
DX 1 29 Aug 12:02:39 12:06:44 37° 97° (E) 12:10:49 434.975-435.025
BUGSAT 1 29 Aug 12:04:58 12:09:02 84° 252° (WSW) 12:13:13 437.445
DANDE 29 Aug 12:06:00 12:12:44 75° 74° (ENE) 12:21:00 436.750
AUBIESAT-1 29 Aug 12:08:04 12:11:35 20° 265° (W) 12:14:57 437.475
M-CUBED/EXP-1 PRIME 29 Aug 12:11:02 12:14:16 17° 267° (W) 12:17:19 437.505
DELFI C3 29 Aug 12:13:15 12:17:06 45° 291° (WNW) 12:20:55 145.870
AISAT 29 Aug 12:13:19 12:17:23 33° 95° (E) 12:21:29 437.250
QB50P1 29 Aug 12:13:58 12:18:05 46° 262° (W) 12:22:14 145.935-145.965
Oscar 11 29 Aug 12:15:34 12:19:32 35° 295° (WNW) 12:23:26 145.826/435.025
HO-68 29 Aug 12:16:44 12:23:03 33° 308° (NW) 12:29:15 435.675
ANTELSAT 29 Aug 12:18:55 12:22:37 22° 271° (W) 12:26:16 437.575/2403.000
UKube-1 29 Aug 12:19:39 12:23:53 48° 100° (E) 12:28:06 .
Gurwin Techsat 1B 29 Aug 12:22:37 12:23:16 10° 42° (NE) 12:24:07 435.225
CUBEBUG 1 29 Aug 12:22:47 12:26:32 27° 93° (E) 12:30:18 437.445
HUMSAT D 29 Aug 12:24:21 12:28:41 84° 287° (WNW) 12:32:55 437.325/437.525
SO-50 29 Aug 12:25:45 12:28:59 17° 247° (WSW) 12:32:02 436.795
SEEDS 29 Aug 12:26:55 12:28:43 12° 307° (NW) 12:30:23 437.485
SPROUT 29 Aug 12:30:36 12:32:17 12° 84° (E) 12:34:09 437.525
CINEMA 3 29 Aug 12:31:38 12:35:06 19° 305° (NW) 12:38:26 145.822/145.860
CUBEBUG 2 29 Aug 12:40:26 12:44:15 24° 301° (WNW) 12:47:57 437.445
GONETS M04 29 Aug 12:41:31 12:47:59 23° 47° (NE) 12:54:40
VELOX 1 29 Aug 12:42:13 12:46:38 57° 101° (E) 12:51:03 145.980
Cosmos 2491 29 Aug 12:45:00 12:52:20 28° 307° (NW) 12:59:30 435.465 / 435.565
ZACube-1 29 Aug 12:52:38 12:56:29 26° 299° (WNW) 13:00:11 437.345
UWE-3 29 Aug 12:53:23 12:57:02 22° 301° (WNW) 13:00:33 435.000/436.395/437.385
ISS 29 Aug 12:54:05 12:57:14 49° 166° (SSE) 13:00:24 145.825
ITAMSAT 1 29 Aug 12:54:24 12:56:58 14° 48° (NE) 12:59:41 435.822/435.867
Cosmos 2504 29 Aug 12:58:06 13:05:55 39° 276° (W) 13:13:18 435.465 / 435.565
FUNcube-1 29 Aug 12:59:27 13:03:08 24° 300° (WNW) 13:06:41 145.935
JAS-2 29 Aug 13:10:29 13:15:55 22° 45° (NE) 13:21:31 435.910
50 SAT 29 Aug 13:11:33 13:15:25 59° 289° (WNW) 13:19:13 437.505
POLYITAN 1 29 Aug 13:16:26 13:18:48 14° 275° (W) 13:21:01 437.675
PCSat 29 Aug 13:17:19 13:21:42 25° 249° (WSW) 13:25:57 145.827
POPSAT HIP 1 29 Aug 13:20:25 13:22:34 13° 275° (W) 13:24:32 437.405
DUCHIFAT 1 29 Aug 13:23:35 13:25:33 13° 276° (W) 13:27:22 145.980
ESTCUBE 1 29 Aug 13:26:10 13:30:41 75° 288° (WNW) 13:35:10 437.505/2401.250
Cosmos 2499 29 Aug 13:30:17 13:35:02 16° 35° (NE) 13:40:00 435.465 / 435.565
AO-7 29 Aug 13:34:52 13:40:49 23° 35° (NE) 13:46:54 29.400- 29.500
Oscar 19 29 Aug 13:37:31 13:42:40 70° 70° (ENE) 13:47:52 437.125/150
DX 1 29 Aug 13:38:59 13:42:56 33° 297° (WNW) 13:46:52 434.975-435.025
CUSAT 1 29 Aug 13:42:00 13:48:00 28° 274° (W) 13:54:24 437.405
BUGSAT 1 29 Aug 13:43:50 13:45:17 11° 276° (W) 13:46:35 437.445
TISAT 1 29 Aug 13:44:02 13:47:55 33° 95° (E) 13:51:49 437.305
DANDE 29 Aug 13:49:36 13:55:37 32° 271° (W) 14:02:27 436.750
AISAT 29 Aug 13:49:51 13:54:01 38° 295° (WNW) 13:58:09 437.250
UKube-1 29 Aug 13:56:10 13:59:49 26° 299° (WNW) 14:03:26 .
Gurwin Techsat 1B 29 Aug 13:57:06 14:02:00 40° 63° (ENE) 14:06:58 435.225
CUBEBUG 1 29 Aug 13:58:51 14:03:05 45° 292° (WNW) 14:07:17 437.445
HUMSAT D 29 Aug 14:01:21 14:03:47 15° 305° (NW) 14:06:06 437.325/437.525
SPROUT 29 Aug 14:04:46 14:09:09 82° 102° (ESE) 14:13:30 437.525
HO-68 29 Aug 14:05:56 14:08:47 13° 332° (NNW) 14:11:26 435.675
VELOX 1 29 Aug 14:19:18 14:22:53 24° 300° (WNW) 14:26:25 145.980
ITUPSAT 1 29 Aug 14:19:33 14:22:33 17° 87° (E) 14:25:42 437.325
ISS 29 Aug 14:30:14 14:33:27 60° 187° (S) 14:36:40 145.825
ITAMSAT 1 29 Aug 14:30:30 14:35:34 60° 68° (ENE) 14:40:41 435.822/435.867
GONETS M04 29 Aug 14:38:03 14:46:51 69° 74° (ENE) 14:55:40
JAS-2 29 Aug 14:52:04 14:59:40 62° 66° (ENE) 15:07:23 435.910
Cosmos 2491 29 Aug 14:52:25 14:53:20 10° 339° (NNW) 14:54:00 435.465 / 435.565
BEESAT 29 Aug 14:53:46 14:58:01 32° 94° (E) 15:02:19 436.000
ESTCUBE 1 29 Aug 15:04:25 15:06:52 14° 307° (NW) 15:09:11 437.505/2401.250
KKS-1 29 Aug 15:13:19 15:13:42 10° 82° (E) 15:14:21 437.445
Oscar 19 29 Aug 15:18:30 15:22:34 22° 271° (W) 15:26:33 437.125/150
SWISSCUBE 29 Aug 15:19:07 15:23:49 55° 101° (E) 15:28:30 437.505
TISAT 1 29 Aug 15:19:47 15:23:42 35° 295° (WNW) 15:27:35 437.305
Cosmos 2499 29 Aug 15:22:52 15:31:14 44° 63° (ENE) 15:39:15 435.465 / 435.565
AO-7 29 Aug 15:24:02 15:32:09 59° 59° (ENE) 15:40:19 29.400- 29.500
HORYU 2 29 Aug 15:26:28 15:30:22 30° 62° (ENE) 15:34:21 437.375
RS-15 29 Aug 15:30:36 15:35:11 14° 93° (E) 15:40:37 29.354- 29.394
Gurwin Techsat 1B 29 Aug 15:37:01 15:42:01 41° 263° (W) 15:47:03 435.225
SPROUT 29 Aug 15:41:50 15:44:43 17° 303° (WNW) 15:47:30 437.525
ITUPSAT 1 29 Aug 15:56:19 16:01:08 82° 285° (WNW) 16:05:54 437.325
ISS 29 Aug 16:06:40 16:09:32 29° 205° (SSW) 16:12:24 145.825
ITAMSAT 1 29 Aug 16:11:09 16:15:29 26° 269° (W) 16:19:46 435.822/435.867
BEESAT 29 Aug 16:31:29 16:36:00 43° 295° (WNW) 16:40:29 436.000
STARS 29 Aug 16:34:54 16:38:59 34° 96° (E) 16:43:04 437.465
GONETS M04 29 Aug 16:35:27 16:43:14 36° 277° (W) 16:50:53
JAS-2 29 Aug 16:37:46 16:45:02 42° 268° (W) 16:52:23 435.910
CUTE-I 29 Aug 16:38:25 16:40:58 14° 47° (NE) 16:43:41 437.470
BEESAT 3 29 Aug 16:39:09 16:42:45 32° 122° (ESE) 16:46:26 437.485
MOZHAYETS 4 29 Aug 16:41:49 16:43:59 13° 84° (E) 16:46:21
KKS-1 29 Aug 16:46:49 16:51:19 67° 103° (ESE) 16:55:48 437.445
BEESAT 2 29 Aug 16:47:23 16:50:59 30° 121° (ESE) 16:54:37 435.950
SWISSCUBE 29 Aug 16:57:25 17:01:25 27° 300° (WNW) 17:05:21 437.505
HORYU 2 29 Aug 17:02:34 17:06:53 43° 262° (W) 17:11:13 437.375
AIST 2 29 Aug 17:07:56 17:09:57 13° 113° (ESE) 17:12:07 435.215
Cosmos 2499 29 Aug 17:16:12 17:24:51 60° 268° (W) 17:32:59 435.465 / 435.565
AO-7 29 Aug 17:17:21 17:25:18 45° 262° (W) 17:33:13 29.400- 29.500
Cubesat XI-IV 29 Aug 17:30:04 17:34:32 29° 58° (ENE) 17:39:04 437.490
RS-15 29 Aug 17:34:27 17:44:51 53° 118° (ESE) 17:55:48 29.354- 29.394
ITUPSAT 1 29 Aug 17:35:20 17:38:23 17° 307° (NW) 17:41:17 437.325
HO-68 29 Aug 17:35:26 17:37:45 12° 27° (NNE) 17:40:16 435.675
STARS 29 Aug 18:11:20 18:15:28 36° 295° (WNW) 18:19:32 437.465
CUTE-I 29 Aug 18:14:54 18:20:05 56° 67° (ENE) 18:25:19 437.470
BEESAT 3 29 Aug 18:16:35 18:20:34 49° 322° (NW) 18:24:33 437.485
BRITE-PL 29 Aug 18:16:46 18:18:56 14° 50° (NE) 18:21:18 437.365/2234.400
MOZHAYETS 4 29 Aug 18:17:25 18:22:01 85° 105° (ESE) 18:26:35
AIST 1 29 Aug 18:22:27 18:23:30 11° 54° (NE) 18:24:44
KKS-1 29 Aug 18:24:07 18:27:34 21° 302° (WNW) 18:30:55 437.445
BEESAT 2 29 Aug 18:24:49 18:28:51 52° 321° (NW) 18:32:54 435.950
CUBESAT XI-V 29 Aug 18:28:09 18:30:50 15° 85° (E) 18:33:41 437.345
AIST 2 29 Aug 18:43:37 18:47:52 75° 133° (SE) 18:52:08 435.215
Cosmos 2491 29 Aug 18:51:04 18:57:26 22° 46° (NE) 19:04:03 435.465 / 435.565
GOMX 1 29 Aug 18:57:12 19:00:21 19° 54° (NE) 19:03:46 467.674
Cubesat XI-IV 29 Aug 19:09:05 19:14:22 61° 258° (WSW) 19:19:40 437.490
Cosmos 2499 29 Aug 19:11:14 19:16:14 16° 291° (WNW) 19:20:44 435.465 / 435.565
HO-68 29 Aug 19:17:22 19:23:24 31° 51° (NE) 19:29:35 435.675
DOVE 4 29 Aug 19:22:33 19:25:55 20° 55° (NE) 19:29:33 437.250
CUTE 1.7 + AOD 2 29 Aug 19:34:08 19:36:45 16° 57° (ENE) 19:39:28 437.475
RS-15 29 Aug 19:46:00 19:57:06 70° 325° (NW) 20:08:46 29.354- 29.394
CANX-2 29 Aug 19:46:57 19:50:13 22° 60° (ENE) 19:53:33 2200.000
BRITE-PL 29 Aug 19:52:11 19:56:34 67° 71° (ENE) 20:01:20 437.365/2234.400
MOZHAYETS 4 29 Aug 19:55:37 19:58:42 18° 304° (NW) 20:01:41
CUTE-I 29 Aug 19:55:56 20:00:32 28° 268° (W) 20:05:05 437.470
BEESAT 3 29 Aug 19:56:15 19:59:19 20° 345° (NNW) 20:02:23 437.485
AIST 1 29 Aug 19:57:51 20:02:09 65° 76° (ENE) 20:06:27
PRISM 29 Aug 19:58:16 20:01:09 19° 90° (E) 20:04:08 437.425
CUBESAT XI-V 29 Aug 20:04:19 20:08:59 85° 288° (WNW) 20:13:38 437.345
BEESAT 2 29 Aug 20:04:34 20:07:42 20° 344° (NNW) 20:10:50 435.950
O/OREOS (USA 219) 29 Aug 20:06:12 20:10:08 30° 107° (ESE) 20:14:10 437.305
Oscar 11 29 Aug 20:07:40 20:08:53 11° 51° (NE) 20:10:16 145.826/435.025
SEEDS 29 Aug 20:12:26 20:16:00 27° 63° (ENE) 20:19:37 437.485
AIST 2 29 Aug 20:23:01 20:26:49 30° 333° (NNW) 20:30:35 435.215
CINEMA 3 29 Aug 20:24:51 20:29:00 31° 62° (ENE) 20:33:21 145.822/145.860
CUBEBUG 2 29 Aug 20:32:20 20:35:43 20° 57° (ENE) 20:39:14 437.445
STRAND 1 29 Aug 20:33:12 20:38:13 53° 100° (E) 20:43:13 437.568
GOMX 1 29 Aug 20:33:16 20:37:50 86° 257° (WSW) 20:42:48 467.674
COMPASS 1 29 Aug 20:38:03 20:41:53 35° 66° (ENE) 20:45:46 437.405
ZACube-1 29 Aug 20:43:34 20:46:24 17° 55° (NE) 20:49:21 437.345
UWE-3 29 Aug 20:44:22 20:47:44 21° 58° (ENE) 20:51:14 435.000/436.395/437.385
Cosmos 2491 29 Aug 20:47:36 20:56:21 69° 73° (ENE) 21:05:06 435.465 / 435.565
FUNcube-1 29 Aug 20:49:51 20:52:51 18° 56° (ENE) 20:56:00 145.935
AAUSAT CUBESAT 2 29 Aug 20:50:19 20:54:13 39° 68° (ENE) 20:58:10 437.432
Cubesat XI-IV 29 Aug 20:54:06 20:55:44 11° 280° (W) 20:57:04 437.490
DOVE 4 29 Aug 20:58:26 21:03:05 81° 255° (WSW) 21:08:07 437.250
HO-68 29 Aug 21:03:24 21:10:36 81° 252° (WSW) 21:17:52 435.675
YUBILEINY 29 Aug 21:05:11 21:12:28 32° 81° (E) 21:19:59 435.215
CUTE 1.7 + AOD 2 29 Aug 21:07:50 21:12:08 85° 256° (WSW) 21:16:27 437.475
CANX-2 29 Aug 21:21:34 21:25:49 59° 259° (W) 21:30:05 2200.000
DX 1 29 Aug 21:30:51 21:32:55 14° 52° (NE) 21:35:07 434.975-435.025
DELFI C3 29 Aug 21:31:29 21:35:07 33° 66° (ENE) 21:38:48 145.870
BRITE-PL 29 Aug 21:32:30 21:35:44 19° 274° (W) 21:39:02 437.365/2234.400
PRISM 29 Aug 21:32:55 21:36:58 59° 290° (WNW) 21:41:00 437.425
BEESAT 3 29 Aug 21:35:44 21:38:33 18° 8° (N) 21:41:23 437.485
AIST 1 29 Aug 21:36:28 21:39:22 17° 275° (W) 21:42:10
Oscar 11 29 Aug 21:39:58 21:44:15 58° 71° (ENE) 21:48:33 145.826/435.025
CUBESAT XI-V 29 Aug 21:42:54 21:45:49 16° 305° (NW) 21:48:37 437.345
AISAT 29 Aug 21:43:41 21:45:31 13° 51° (NE) 21:47:30 437.250
BEESAT 2 29 Aug 21:44:12 21:47:03 18° 8° (N) 21:49:54 435.950
O/OREOS (USA 219) 29 Aug 21:45:00 21:49:26 47° 308° (NW) 21:53:53 437.305
UKube-1 29 Aug 21:46:32 21:49:08 16° 55° (NE) 21:51:52 .
HUMSAT D 29 Aug 21:47:17 21:50:44 24° 61° (ENE) 21:54:15 437.325/437.525
SEEDS 29 Aug 21:47:32 21:51:37 44° 262° (W) 21:55:43 437.485
RS-15 29 Aug 22:00:44 22:11:37 48° 357° (N) 22:23:03 29.354- 29.394
CINEMA 3 29 Aug 22:01:26 22:06:01 48° 262° (W) 22:10:48 145.822/145.860
AIST 2 29 Aug 22:03:36 22:06:33 18° 356° (N) 22:09:30 435.215
CUBEBUG 2 29 Aug 22:07:13 22:11:53 78° 257° (WSW) 22:16:42 437.445
VELOX 1 29 Aug 22:11:06 22:14:10 19° 57° (ENE) 22:17:21 145.980
STRAND 1 29 Aug 22:12:47 22:17:14 30° 300° (WNW) 22:21:37 437.568
COMPASS 1 29 Aug 22:13:47 22:17:35 31° 265° (W) 22:21:22 437.405
GOMX 1 29 Aug 22:14:22 22:16:56 14° 278° (W) 22:19:24 467.674
ZACube-1 29 Aug 22:17:33 22:22:08 86° 75° (ENE) 22:26:47 437.345
UWE-3 29 Aug 22:19:09 22:23:47 75° 257° (WSW) 22:28:31 435.000/436.395/437.385
FUNcube-1 29 Aug 22:24:03 22:28:37 86° 255° (WSW) 22:33:17 145.935
AAUSAT CUBESAT 2 29 Aug 22:26:16 22:29:56 28° 267° (W) 22:33:34 437.432
50 SAT 29 Aug 22:27:06 22:30:20 25° 63° (ENE) 22:33:37 437.505
DOVE 4 29 Aug 22:39:23 22:41:50 14° 279° (W) 22:44:10 437.250
Cosmos 2491 29 Aug 22:45:01 22:52:47 36° 277° (W) 23:00:24 435.465 / 435.565
CUTE 1.7 + AOD 2 29 Aug 22:46:51 22:48:48 12° 276° (W) 22:50:33 437.475
HO-68 29 Aug 22:54:21 22:59:35 20° 275° (W) 23:04:37 435.675
ESTCUBE 1 29 Aug 22:55:42 22:59:44 33° 64° (ENE) 23:03:47 437.505/2401.250
YUBILEINY 29 Aug 22:59:47 23:08:36 78° 284° (WNW) 23:17:31 435.215
DX 1 29 Aug 23:04:09 23:08:28 72° 72° (ENE) 23:12:50 434.975-435.025
DELFI C3 29 Aug 23:06:31 23:10:11 32° 265° (W) 23:13:50 145.870
TISAT 1 29 Aug 23:10:19 23:11:08 11° 51° (NE) 23:12:07 437.305
PRISM 29 Aug 23:10:44 23:11:37 11° 309° (NW) 23:12:22 437.425
BEESAT 3 29 Aug 23:13:44 23:17:31 35° 31° (NNE) 23:21:15 437.485
AISAT 29 Aug 23:16:57 23:21:19 65° 71° (ENE) 23:25:45 437.250
Oscar 11 29 Aug 23:17:29 23:20:49 21° 270° (W) 23:24:05 145.826/435.025
UNISAT 6 29 Aug 23:17:52 23:21:35 24° 90° (E) 23:25:18 437.425
UKube-1 29 Aug 23:20:23 23:24:43 89° 257° (WSW) 23:29:05 .
HUMSAT D 29 Aug 23:21:57 23:26:12 53° 260° (W) 23:30:29 437.325/437.525
BEESAT 2 29 Aug 23:22:22 23:26:09 34° 31° (NNE) 23:29:54 435.950
POPSAT HIP 1 29 Aug 23:23:16 23:23:43 10° 82° (E) 23:24:25 437.405
CUBEBUG 1 29 Aug 23:24:49 23:28:58 48° 68° (ENE) 23:33:12 437.445
DUCHIFAT 1 29 Aug 23:25:38 23:26:16 10° 82° (E) 23:27:08 145.980
O/OREOS (USA 219) 29 Aug 23:27:35 23:30:03 14° 331° (NNW) 23:32:27 437.305
SPROUT 29 Aug 23:30:10 23:33:28 22° 60° (ENE) 23:36:51 437.525
QB50P2 29 Aug 23:38:00 23:40:25 15° 86° (E) 23:42:59 145.880/145.840
NANOSAT C BR1 29 Aug 23:40:48 23:43:16 15° 86° (E) 23:45:51 145.865
AUBIESAT-1 29 Aug 23:41:51 23:44:49 19° 95° (E) 23:47:42 437.475
AIST 2 29 Aug 23:42:57 23:46:24 24° 20° (NNE) 23:49:50 435.215
Cosmos 2504 29 Aug 23:43:10 23:50:35 41° 85° (E) 23:58:28 435.465 / 435.565
BUGSAT 1 29 Aug 23:43:41 23:43:51 10° 82° (E) 23:44:15 437.445
M-CUBED/EXP-1 PRIME 29 Aug 23:44:41 23:48:06 24° 97° (E) 23:51:20 437.505
VELOX 1 29 Aug 23:45:51 23:50:16 74° 256° (WSW) 23:54:43 145.980
TIGRISAT 29 Aug 23:47:02 23:51:26 40° 97° (E) 23:55:43 435.000
CUBEBUG 2 29 Aug 23:47:15 23:49:29 13° 278° (W) 23:51:32 437.445
QB50P1 29 Aug 23:53:02 23:56:09 20° 89° (E) 23:59:23 145.935-145.965
ZACube-1 29 Aug 23:56:24 23:59:11 15° 275° (W) 00:01:50 437.345
UWE-3 29 Aug 23:59:15 00:01:14 12° 278° (W) 00:03:01 435.000/436.395/437.385
50 SAT 30 Aug 00:00:52 00:04:40 43° 262° (W) 00:08:29 437.505
ANTELSAT 30 Aug 00:03:04 00:07:40 56° 100° (E) 00:12:09 437.575/2403.000
FUNcube-1 30 Aug 00:03:17 00:05:43 14° 276° (W) 00:08:00 145.935
RS-15 30 Aug 00:14:58 00:26:26 62° 29° (NNE) 00:38:27 29.354- 29.394
BEESAT 30 Aug 00:31:12 00:33:53 15° 52° (NE) 00:36:41 436.000
ESTCUBE 1 30 Aug 00:32:21 00:36:34 38° 263° (W) 00:40:46 437.505/2401.250
TISAT 1 30 Aug 00:41:56 00:46:03 56° 70° (ENE) 00:50:14 437.305
DX 1 30 Aug 00:42:22 00:45:16 17° 272° (W) 00:48:03 434.975-435.025
BEESAT 3 30 Aug 00:51:38 00:55:36 51° 233° (SW) 00:59:28 437.485
POLYITAN 1 30 Aug 00:52:40 00:57:00 67° 102° (ESE) 01:01:17 437.675
UNISAT 6 30 Aug 00:54:09 00:58:43 55° 291° (WNW) 01:03:10 437.425
AISAT 30 Aug 00:55:08 00:58:22 19° 271° (W) 01:01:31 437.250
SWISSCUBE 30 Aug 00:55:30 00:59:13 24° 58° (ENE) 01:03:01 437.505
POPSAT HIP 1 30 Aug 00:56:10 01:00:30 71° 103° (ESE) 01:04:48 437.405
DUCHIFAT 1 30 Aug 00:58:38 01:02:57 72° 102° (ESE) 01:07:15 145.980
UKube-1 30 Aug 00:59:25 01:01:34 13° 275° (W) 01:03:33 .
YUBILEINY 30 Aug 01:00:06 01:07:12 25° 311° (NW) 01:14:08 435.215
BEESAT 2 30 Aug 01:00:22 01:04:23 54° 232° (SW) 01:08:19 435.950
CUBEBUG 1 30 Aug 01:02:00 01:05:35 24° 268° (W) 01:09:09 437.445
SPROUT 30 Aug 01:04:58 01:09:12 58° 259° (WSW) 01:13:30 437.525
QB50P2 30 Aug 01:12:35 01:16:56 81° 287° (WNW) 01:21:14 145.880/145.840
CUSAT 1 30 Aug 01:13:09 01:17:09 55° 96° (E) 01:22:32 437.405
NANOSAT C BR1 30 Aug 01:15:22 01:19:42 79° 286° (WNW) 01:23:59 145.865
AUBIESAT-1 30 Aug 01:15:49 01:19:59 57° 297° (WNW) 01:23:46 437.475
BUGSAT 1 30 Aug 01:15:56 01:20:11 71° 103° (ESE) 01:24:27 437.445
M-CUBED/EXP-1 PRIME 30 Aug 01:19:02 01:23:10 47° 299° (WNW) 01:26:57 437.505
AIST 2 30 Aug 01:21:24 01:25:38 70° 42° (NE) 01:29:48 435.215
TIGRISAT 30 Aug 01:23:54 01:28:07 34° 296° (WNW) 01:32:11 435.000
DANDE 30 Aug 01:25:48 01:29:17 43° 93° (E) 01:33:56 436.750
VELOX 1 30 Aug 01:26:18 01:27:43 11° 277° (W) 01:28:54 145.980
QB50P1 30 Aug 01:28:10 01:32:26 60° 289° (WNW) 01:36:40 145.935-145.965
ITUPSAT 1 30 Aug 01:32:02 01:36:27 39° 65° (ENE) 01:40:55 437.325
Cosmos 2504 30 Aug 01:34:21 01:42:32 62° 288° (WNW) 01:51:06 435.465 / 435.565
ANTELSAT 30 Aug 01:40:19 01:44:09 25° 300° (WNW) 01:47:51 437.575/2403.000
Oscar 19 30 Aug 01:43:44 01:46:43 16° 84° (E) 01:49:54 437.125/150
GONETS M04 30 Aug 01:55:32 02:00:08 16° 70° (ENE) 02:05:10
STARS 30 Aug 02:04:24 02:06:19 13° 52° (NE) 02:08:23 437.465
BEESAT 30 Aug 02:06:15 02:11:00 74° 72° (ENE) 02:15:48 436.000
KKS-1 30 Aug 02:15:50 02:19:15 22° 59° (ENE) 02:22:45 437.445
TISAT 1 30 Aug 02:18:58 02:22:11 20° 270° (W) 02:25:20 437.305
PCSat 30 Aug 02:23:15 02:26:37 17° 108° (ESE) 02:30:10 145.827
RS-15 30 Aug 02:27:49 02:39:22 67° 236° (WSW) 02:51:19 29.354- 29.394
POLYITAN 1 30 Aug 02:29:18 02:32:30 20° 302° (WNW) 02:35:37 437.675
SWISSCUBE 30 Aug 02:31:58 02:36:43 65° 258° (WSW) 02:41:29 437.505
POPSAT HIP 1 30 Aug 02:32:49 02:35:56 19° 302° (WNW) 02:38:58 437.405
UNISAT 6 30 Aug 02:32:54 02:34:34 12° 311° (NW) 02:36:04 437.425
DUCHIFAT 1 30 Aug 02:35:16 02:38:19 19° 302° (WNW) 02:41:17 145.980
ITAMSAT 1 30 Aug 02:38:29 02:40:39 13° 82° (E) 02:43:03 435.822/435.867
SO-50 30 Aug 02:44:18 02:48:47 39° 123° (ESE) 02:53:24 436.795
QB50P2 30 Aug 02:49:47 02:52:11 14° 306° (NW) 02:54:27 145.880/145.840
O/OREOS (USA 219) 30 Aug 02:51:56 02:53:20 11° 22° (NNE) 02:54:50 437.305
AUBIESAT-1 30 Aug 02:52:07 02:53:49 12° 317° (NW) 02:55:21 437.475
BUGSAT 1 30 Aug 02:52:12 02:55:14 19° 302° (WNW) 02:58:11 437.445
NANOSAT C BR1 30 Aug 02:52:32 02:54:52 14° 306° (NW) 02:57:05 145.865
M-CUBED/EXP-1 PRIME 30 Aug 02:55:50 02:56:57 11° 320° (NW) 02:57:57 437.505
CUSAT 1 30 Aug 02:56:33 03:00:18 25° 306° (NW) 03:04:55 437.405
AIST 2 30 Aug 03:00:33 03:03:49 22° 242° (WSW) 03:06:59 435.215
QB50P1 30 Aug 03:06:01 03:07:29 11° 309° (NW) 03:08:48 145.935-145.965
DANDE 30 Aug 03:09:28 03:12:48 25° 304° (NW) 03:16:57 436.750
ITUPSAT 1 30 Aug 03:10:00 03:14:25 35° 264° (W) 03:18:48 437.325
Oscar 19 30 Aug 03:21:43 03:26:59 84° 103° (ESE) 03:32:12 437.125/150
AO-7 30 Aug 03:22:51 03:23:13 10° 73° (ENE) 03:24:14 29.400- 29.500
Cosmos 2504 30 Aug 03:30:51 03:36:56 20° 315° (NW) 03:42:54 435.465 / 435.565
STARS 30 Aug 03:37:37 03:42:00 66° 71° (ENE) 03:46:27 437.465
JAS-2 30 Aug 03:40:45 03:47:09 32° 88° (E) 03:53:01 435.910
BEESAT 30 Aug 03:46:01 03:49:26 19° 272° (W) 03:52:45 436.000
Gurwin Techsat 1B 30 Aug 03:46:07 03:51:18 51° 99° (E) 03:56:29 435.225
GONETS M04 30 Aug 03:46:49 03:55:17 62° 93° (E) 04:03:52
MOZHAYETS 4 30 Aug 03:49:14 03:53:06 27° 62° (ENE) 03:57:02
KKS-1 30 Aug 03:51:06 03:55:32 63° 258° (WSW) 04:00:00 437.445
PCSat 30 Aug 04:03:54 04:09:19 80° 127° (SE) 04:14:47 145.827
Cosmos 2499 30 Aug 04:08:03 04:14:53 29° 79° (ENE) 04:22:08 435.465 / 435.565
SWISSCUBE 30 Aug 04:14:28 04:15:38 11° 279° (W) 04:16:32 437.505
ITAMSAT 1 30 Aug 04:16:02 04:21:14 71° 103° (ESE) 04:26:25 435.822/435.867
SO-50 30 Aug 04:24:27 04:29:16 53° 324° (NW) 04:34:10 436.795
O/OREOS (USA 219) 30 Aug 04:30:05 04:34:15 33° 46° (NE) 04:38:27 437.305
RS-15 30 Aug 04:41:28 04:49:51 22° 260° (W) 04:57:51 29.354- 29.394
HORYU 2 30 Aug 04:47:30 04:51:05 23° 91° (E) 04:54:43 437.375
Oscar 19 30 Aug 05:01:52 05:05:48 22° 305° (NW) 05:09:38 437.125/150
AO-7 30 Aug 05:10:49 05:18:43 46° 98° (E) 05:26:37 29.400- 29.500
STARS 30 Aug 05:15:43 05:18:56 19° 271° (W) 05:22:03 437.465
JAS-2 30 Aug 05:25:29 05:32:54 69° 292° (WNW) 05:39:28 435.910
MOZHAYETS 4 30 Aug 05:25:38 05:30:08 50° 261° (W) 05:34:38
Gurwin Techsat 1B 30 Aug 05:26:24 05:31:09 33° 299° (WNW) 05:35:50 435.225
CUBESAT XI-V 30 Aug 05:37:18 05:41:17 31° 63° (ENE) 05:45:22 437.345
GONETS M04 30 Aug 05:44:30 05:52:40 42° 298° (WNW) 06:00:50
PCSat 30 Aug 05:48:23 05:53:17 33° 330° (NNW) 05:58:12 145.827
ITAMSAT 1 30 Aug 05:56:10 06:00:21 25° 303° (WNW) 06:04:26 435.822/435.867
Cosmos 2499 30 Aug 05:58:32 06:07:08 87° 282° (WNW) 06:16:07 435.465 / 435.565
SO-50 30 Aug 06:06:39 06:10:47 25° 347° (NNW) 06:14:55 436.795
O/OREOS (USA 219) 30 Aug 06:09:25 06:13:52 47° 248° (WSW) 06:18:17 437.305
STRAND 1 30 Aug 06:17:32 06:21:47 28° 59° (ENE) 06:26:07 437.568
HORYU 2 30 Aug 06:23:39 06:28:03 53° 291° (WNW) 06:32:23 437.375
CUTE-I 30 Aug 06:26:56 06:29:22 13° 82° (E) 06:32:04 437.470
PRISM 30 Aug 06:53:57 06:57:37 33° 64° (ENE) 07:01:19 437.425
AO-7 30 Aug 07:03:44 07:11:51 58° 301° (WNW) 07:19:53 29.400- 29.500
YUBILEINY 30 Aug 07:05:24 07:12:19 25° 49° (NE) 07:19:24 435.215
JAS-2 30 Aug 07:11:17 07:16:44 22° 315° (NW) 07:21:42 435.910
CUBESAT XI-V 30 Aug 07:14:14 07:18:38 43° 263° (W) 07:23:03 437.345
Cubesat XI-IV 30 Aug 07:19:49 07:24:38 34° 94° (E) 07:29:28 437.490
PCSat 30 Aug 07:34:20 07:38:18 20° 355° (N) 07:42:15 145.827
GONETS M04 30 Aug 07:48:16 07:52:44 14° 327° (NNW) 07:56:56
SO-50 30 Aug 07:48:37 07:52:44 25° 12° (NNE) 07:56:50 436.795
BRITE-PL 30 Aug 07:50:28 07:53:58 18° 85° (E) 07:57:44 437.365/2234.400
Cosmos 2499 30 Aug 07:54:22 08:01:46 29° 307° (NW) 08:09:10 435.465 / 435.565
STRAND 1 30 Aug 07:55:41 08:00:44 59° 258° (WSW) 08:05:48 437.568
HORYU 2 30 Aug 08:02:32 08:03:47 11° 311° (NW) 08:04:52 437.375
CUTE-I 30 Aug 08:05:11 08:10:32 72° 104° (ESE) 08:15:52 437.470
Cosmos 2491 30 Aug 08:05:16 08:09:49 16° 70° (ENE) 08:14:46 435.465 / 435.565
HO-68 30 Aug 08:25:46 08:29:20 15° 79° (E) 08:33:16 435.675
GOMX 1 30 Aug 08:28:36 08:32:43 22° 88° (E) 08:37:02 467.674
PRISM 30 Aug 08:29:18 08:33:03 33° 264° (W) 08:36:46 437.425
AIST 1 30 Aug 08:34:27 08:37:59 26° 89° (E) 08:41:36
CUTE 1.7 + AOD 2 30 Aug 08:48:41 08:49:58 11° 83° (E) 08:51:27 437.475
DOVE 4 30 Aug 08:51:15 08:55:17 22° 87° (E) 08:59:27 437.250
AO-7 30 Aug 08:57:08 09:03:11 23° 325° (NW) 09:09:02 29.400- 29.500
Cubesat XI-IV 30 Aug 08:59:49 09:04:57 48° 295° (WNW) 09:10:02 437.490
AUBIESAT-1 30 Aug 09:01:15 09:04:11 17° 48° (NE) 09:07:10 437.475
CANX-2 30 Aug 09:01:19 09:04:00 17° 87° (E) 09:06:46 2200.000
YUBILEINY 30 Aug 09:02:02 09:10:56 77° 76° (ENE) 09:19:47 435.215
M-CUBED/EXP-1 PRIME 30 Aug 09:04:15 09:07:38 20° 50° (NE) 09:11:02 437.505
TIGRISAT 30 Aug 09:17:32 09:20:08 15° 53° (NE) 09:22:51 435.000
PCSat 30 Aug 09:19:01 09:23:29 25° 21° (NNE) 09:27:59 145.827
Cosmos 2504 30 Aug 09:21:07 09:27:43 24° 49° (NE) 09:34:20 435.465 / 435.565
SEEDS 30 Aug 09:25:45 09:28:53 20° 90° (E) 09:32:05 437.485
BRITE-PL 30 Aug 09:27:51 09:33:13 86° 102° (ESE) 09:38:53 437.365/2234.400
SO-50 30 Aug 09:29:24 09:34:17 50° 35° (NE) 09:39:06 436.795
ANTELSAT 30 Aug 09:32:56 09:36:15 20° 57° (ENE) 09:39:41 437.575/2403.000
STRAND 1 30 Aug 09:40:37 09:41:11 10° 280° (W) 09:41:26 437.568
CUTE-I 30 Aug 09:45:54 09:50:13 25° 304° (NW) 09:54:26 437.470
CINEMA 3 30 Aug 09:49:48 09:54:16 31° 92° (E) 09:58:42 145.822/145.860
COMPASS 1 30 Aug 09:50:25 09:53:58 27° 93° (E) 09:57:34 437.405
CUBEBUG 2 30 Aug 09:52:59 09:55:59 17° 85° (E) 09:59:05 437.445
Cosmos 2491 30 Aug 09:56:30 10:04:58 61° 93° (E) 10:13:32 435.465 / 435.565
Cosmos 2499 30 Aug 09:56:36 09:58:54 11° 337° (NNW) 10:00:56 435.465 / 435.565
CUSAT 1 30 Aug 09:58:11 10:03:49 25° 54° (NE) 10:10:16 437.405
ZACube-1 30 Aug 10:01:44 10:03:28 12° 82° (E) 10:05:23 437.345
AAUSAT CUBESAT 2 30 Aug 10:02:09 10:05:49 30° 94° (E) 10:09:30 437.432
UWE-3 30 Aug 10:03:45 10:06:39 17° 85° (E) 10:09:39 435.000/436.395/437.385
GOMX 1 30 Aug 10:06:01 10:11:23 75° 288° (WNW) 10:16:53 467.674
FUNcube-1 30 Aug 10:07:39 10:09:47 13° 83° (E) 10:12:05 145.935
AIST 1 30 Aug 10:11:28 10:15:29 40° 289° (WNW) 10:19:33
HO-68 30 Aug 10:11:38 10:18:47 62° 103° (ESE) 10:25:55 435.675
DANDE 30 Aug 10:13:17 10:18:22 23° 54° (NE) 10:24:25 436.750
POLYITAN 1 30 Aug 10:17:26 10:20:24 19° 58° (ENE) 10:23:28 437.675
